This demonstration page uses our WeatherBlox Daily Observations layout. Learn more.

Left ArrowRight Arrow

39.92423, -83.80882

Hourly Observations for November 4, 2015

Temp ( °F °C ) Dew Point ( °F °C ) Humidity (%) Winds ( mph kmh ) Pressure ( in mb ) Visibility ( mi km ) Precip ( " mm )
12:56 am 00:56 Clear 53 11.6 51 10.5 93 93 E 3 6 30.19 1022 10 16.0934 0 0
1:56 am 01:56 Clear 52 11.1 51 10.5 96 96 E 5 7 30.18 1022 10 16.0934 0 0
2:56 am 02:56 Clear 51 10.5 49 9.4 93 93 E 6 9 30.18 1022 10 16.0934 0 0
3:56 am 03:56 Clear 51 10.5 48 8.8 89 89 E 6 9 30.18 1022 10 16.0934 0 0
4:56 am 04:56 Clear 51 10.5 47 8.3 86 86 E 3 6 30.19 1022 10 16.0934 0 0
5:56 am 05:56 Clear 50 10 47 8.3 89 89 E 5 7 30.21 1023 10 16.0934 0 0
6:56 am 06:56 Clear 49 9.4 46 7.7 89 89 ESE 6 9 30.21 1023 10 16.0934 0 0
7:56 am 07:56 Cloudy 54 12.2 50 10 87 87 Calm 30.23 1024 10 16.0934 0 0
8:56 am 08:56 Cloudy 57 13.8 54 12.2 90 90 E 3 6 30.24 1024 10 16.0934 0 0
9:56 am 09:56 Cloudy 60 15.5 55 12.7 84 84 Calm 30.24 1024 10 16.0934 0 0
10:56 am 10:56 Cloudy 64 17.7 57 13.8 78 78 SW 5 7 30.24 1024 10 16.0934 0 0
11:56 am 11:56 Cloudy 66 18.8 58 14.4 76 76 SSW 3 6 30.23 1024 10 16.0934 0 0
12:56 pm 12:56 Cloudy 70 21.1 59 15 68 68 VRB 3 6 30.2 1023 10 16.0934 0 0
1:56 pm 13:56 Cloudy 72 22.2 59 15 64 64 Calm 30.19 1022 10 16.0934 0 0
2:56 pm 14:56 Cloudy 72 22.2 60 15.5 66 66 Calm 30.18 1022 10 16.0934 0 0
3:56 pm 15:56 Mostly Cloudy 73 22.7 60 15.5 64 64 S 5 7 30.17 1022 10 16.0934 0 0
4:56 pm 16:56 Mostly Cloudy 71 21.6 60 15.5 68 68 S 5 7 30.17 1022 10 16.0934 0 0
5:56 pm 17:56 Cloudy 69 20.5 60 15.5 73 73 SSE 3 6 30.18 1022 10 16.0934 0 0
6:56 pm 18:56 Cloudy 66 18.8 60 15.5 81 81 ESE 6 9 30.19 1022 10 16.0934 0 0
7:56 pm 19:56 Cloudy 66 18.8 60 15.5 81 81 SE 6 9 30.19 1022 10 16.0934 0 0
8:56 pm 20:56 Cloudy 65 18.3 60 15.5 84 84 SE 6 9 30.18 1022 10 16.0934 0 0
9:56 pm 21:56 Cloudy 66 18.8 60 15.5 81 81 SSE 9 15 30.17 1022 10 16.0934 0 0
10:56 pm 22:56 Cloudy 66 18.8 60 15.5 81 81 SE 8 13 30.16 1021 10 16.0934 0 0
11:56 pm 23:56 Cloudy 66 18.8 60 15.5 81 81 S 5 7 30.16 1021 10 16.0934 0 0

Powered by AerisWeather